Location: Pinawa
(50.1500°N, 95.8830°W)
Time: 10:51:55
(UTC-05:00)

Daily predictions for brighter satellites

Satellite Brightness Start Highest point End
(mag) Time Altitude Azimuth Time Altitude Azimuth Time Altitude Azimuth
SPOT 1/Viking Rocket 3.6 22:13:29 10° SSE 22:18:37 77° ENE 22:23:47 10° NNW
Cosmos 1680 Rocket 3.6 22:13:22 10° NNW 22:18:39 87° WSW 22:23:54 10° SSE
Cosmos 2322 Rocket 3.8 22:14:59 10° NW 22:19:50 31° WSW 22:24:40 10° SSW
Cosmos 923 Rocket 4.3 22:16:45 10° NNW 22:21:56 66° WSW 22:27:04 10° S
Cosmos 1908 4.1 22:23:11 10° NNW 22:26:59 51° W 22:30:46 10° S
Cosmos 304 Rocket 4.0 22:22:27 10° NNW 22:27:17 71° WSW 22:32:03 10° SSE
SL-16 R/B 3.9 22:24:21 10° NW 22:29:07 28° WSW 22:33:52 10° SSW
AVUM R/B 2.9 22:26:58 10° S 22:29:14 43° ESE 22:31:44 10° NE
USA 245 2.1 22:27:03 10° SSE 22:29:42 83° WSW 22:32:02 10° NNW
Cosmos 2360 Rocket 2.6 22:25:26 10° NW 22:31:02 62° WSW 22:36:36 10° SSE
CZ-4B R/B 3.7 22:26:08 10° NNE 22:31:25 63° ESE 22:36:36 10° S
Cosmos 2315 Rocket 4.1 22:28:38 10° N 22:34:55 88° E 22:41:07 10° S
NOAA 11 4.2 22:32:07 10° SSE 22:37:34 87° ENE 22:43:04 10° NNW
Landsat 7 4.0 22:35:19 10° SSE 22:40:00 63° ENE 22:44:43 10° N
CARTOSAT-1 4.1 22:37:25 10° SE 22:41:32 46° ENE 22:45:42 10° N
Cosmos 2266 Rocket 4.3 22:39:01 10° SSW 22:45:19 73° WNW 22:51:32 10° N
Cosmos 1633 Rocket 3.7 22:42:31 10° SSE 22:46:36 39° E 22:50:41 10° NNE
Sich 1 3.6 22:42:51 10° SSE 22:47:01 42° E 22:51:11 10° NNE
Spot 4 4.5 22:44:36 10° SE 22:49:08 45° ENE 22:53:46 10° N
Cosmos 292 Rocket 4.1 22:45:19 10° NNW 22:50:02 56° ENE 22:54:22 12° SE
USA 234 4.3 22:45:07 10° ENE 22:51:23 49° N 22:57:38 10° WNW
Cosmos 1674 3.7 22:48:24 10° SSW 22:52:07 48° WNW 22:55:54 10° N
Cosmos 2151 3.3 22:49:22 10° SSW 22:53:33 69° WNW 22:57:46 10° N
USA 229 DEB 3.8 22:47:59 10° SW 22:54:56 87° SE 23:02:01 10° NE
Aureole 3 4.5 22:48:17 10° S 22:55:01 85° W 23:00:21 10° N
USA 229 3.8 22:48:05 10° SW 22:55:02 86° SE 23:02:06 10° NE
Meteor 1-4 Rocket 2.9 22:51:34 10° N 22:55:21 58° ENE 22:58:33 13° SSE
Terra 2.0 22:51:23 11° SSE 22:55:52 63° ENE 23:00:36 10° N
Cosmos 1300 2.8 22:52:26 10° NNW 22:56:18 75° W 23:00:08 10° S
Cosmos 1805 Rocket 3.6 22:55:23 10° S 22:59:50 84° E 23:04:19 10° NNE
Cosmos 2227 Rocket 3.7 22:57:45 12° SE 23:01:05 19° E 23:04:58 10° ENE
CZ-4 R/B 3.9 22:56:16 10° NNE 23:01:17 83° ESE 23:06:12 10° SSW
USA 32 4.1 22:56:17 10° N 23:01:34 71° E 23:06:29 12° SSE
Cosmos 1626 3.8 22:59:43 12° SE 23:01:55 19° E 23:04:40 10° NE
Cosmos 2333 Rocket 2.7 22:56:16 10° NNW 23:01:56 55° NE 23:07:11 12° SE
SeaSat 1 3.4 22:58:46 10° ESE 23:03:19 39° NE 23:07:54 10° NNW
Cosmos 1833 4.4 22:57:52 10° SSW 23:03:36 79° WNW 23:09:18 10° NNE
Nadezhda 1 Rocket 4.2 23:01:08 10° N 23:07:09 59° ENE 23:12:27 14° SSE
SL-16 R/B 3.6 23:02:48 10° NNW 23:07:49 31° NE 23:12:48 10° ESE
Lacrosse 4 Rocket 3.4 23:06:06 10° NNW 23:09:39 23° NE 23:13:14 10° E
Cosmos 1869 4.3 23:06:44 10° N 23:10:29 34° ENE 23:13:24 15° SE
CZ-4C R/B 3.4 23:07:42 12° S 23:10:55 58° W 23:14:21 10° NNW
Cosmos 1707 Rocket 4.2 23:09:09 10° NNW 23:13:23 53° W 23:17:37 10° S
COSMOS 2428 3.1 23:07:58 10° NW 23:13:34 58° WSW 23:18:35 13° S
NOSS 3-1 (A) 3.9 23:09:07 10° S 23:14:37 40° ESE 23:20:43 10° NE
Cosmos 1455 2.6 23:15:37 10° N 23:19:19 49° ENE 23:21:56 18° SE
Cosmos 1666 Rocket 3.7 23:17:29 10° SSW 23:21:53 79° W 23:26:21 10° N
Cosmos 1745 Rocket 4.1 23:17:11 11° S 23:23:04 65° E 23:29:12 10° NNE
Cosmos 2058 3.7 23:20:33 10° SSW 23:24:34 51° WNW 23:28:36 10° N
ATLAS 5 CENTAUR R/B 4.4 23:20:27 10° W 23:24:54 28° NNW 23:29:41 10° NE
CZ-4C R/B 4.4 23:20:46 10° NW 23:26:25 30° NNE 23:32:42 10° ENE
Cosmos 2297 Rocket 3.5 23:25:45 15° SE 23:28:36 22° E 23:32:50 10° NE
Cosmos 2298 Rocket 4.0 23:23:22 10° SSW 23:28:40 75° ESE 23:34:00 10° NNE
Cosmos 2219 Rocket 2.2 23:28:30 10° NNW 23:34:07 76° WSW 23:38:24 18° SSE
Cosmos 1470 Rocket 3.6 23:31:55 17° S 23:35:09 61° E 23:39:27 10° NNE
COSMOS 2455 3.4 23:30:40 10° NNW 23:36:35 53° NE 23:42:07 12° ESE
Cosmos 1933 Rocket 3.7 23:33:20 17° S 23:36:42 62° E 23:41:08 10° NNE
ATLAS 2AS CENTAUR R/B 3.8 23:32:40 15° SSE 23:37:41 30° ESE 23:44:24 10° NE
GEOS 3 Rocket 3.8 23:35:40 14° SE 23:40:16 72° NE 23:45:27 10° NW
Cosmos 1937 Rocket 3.6 23:36:51 13° S 23:41:32 61° ESE 23:46:40 10° NNE
Cosmos 220 Rocket 4.2 23:38:58 16° S 23:42:16 54° ESE 23:46:38 10° NNE
SL-14 R/B 4.3 23:41:24 10° SSW 23:45:12 45° WNW 23:49:05 10° N
H-2A R/B 2.9 23:41:19 12° S 23:46:00 48° W 23:51:17 10° NNW
Cosmos 2181 Rocket 4.4 23:39:51 10° N 23:46:06 55° ENE 23:50:50 18° SSE
Cosmos 1703 3.4 23:42:49 14° SSW 23:46:08 75° W 23:50:04 10° N
IGS 5A 4.2 23:43:56 15° S 23:47:09 46° W 23:51:12 10° NNW
Cosmos 1271 Rocket 3.7 23:43:36 10° NNW 23:47:11 39° W 23:50:04 15° SSW
Cosmos 1980 3.7 23:42:05 10° NNW 23:47:46 80° WSW 23:51:50 20° SSE
Cosmos 1269 Rocket 4.4 23:47:07 10° NNW 23:52:24 59° ENE 23:56:14 18° SE
Cosmos 389 Rocket 4.2 23:50:35 10° NNE 23:53:37 24° ENE 23:55:35 16° ESE
Cosmos 1726 4.2 23:50:48 10° NW 23:53:46 22° W 23:56:44 10° SW
